ATLAS 5 CENTAUR DEB, 49366

Orbit data source: Space-Track

ATLAS 5 CENTAUR DEB, 49366 is space debris in HEO originally from a launch on Wed, 17 Oct 2018 UTC launched from the Air Force Eastern Test Range (AFETR). Debris objects in space refer to the collection of defunct objects orbiting the Earth. Examples of debris include non-operational satellites, rocket bodies, and fragments generated from explosions, collisions, or faulty payload assembly.

Loading next visibility...
Identifier
49366, 2018-079FT
Orbit
HEO
Country
Flag of USUS
Related business
Flag of USUnited Launch Alliance/Lockheed Martin (US)
Manufacturer
ULA Decatur
Mission
Spacecraft
Bus & Motor
Unknown
Mass
Unknown
Launch date (UTC)
2018-10-17 (8 years ago)
Launch vehicle
Unknown
Launch site
Air Force Eastern Test Range (AFETR)
Object type
Payload
Rocket body
Debris
Shape & HBR
Unknown shape, 1.1 m
Radar Cross Section
RCS unknown

Expand to show TLE details & history
Last TLE update: 23 hours ago

TLE from 23 hours ago
0 ATLAS 5 CENTAUR DEB
1 49366U 18079FT  26125.87894878 -.00000089  00000-0  00000-0 0  9996
2 49366  14.2837  44.2564 5188264 281.5654  26.8750  1.65078848 28673
Epoch: 2026-05-05T21:05Z
TLE epoch observation values (Epoch: 2026-05-05T21:05:41.174Z)
Latitude
0.00007°
Longitude
-136.01027°
Altitude
13,664.24 km
Speed
5.157 km/s
True Right ascension
02h 56m 38s
True Declination
0° 00' 00"
Sunlit
Object was in daylight at epoch
Visualization orbit readout
Latitude
Unknown
Longitude
Unknown
Altitude
Unknown
Speed
Unknown
Apparent Right ascension
Unknown
Apparent Declination
Unknown
Sunlit
N/A
Visualization observer readout
Local Sidereal Time
03:34:13
Azimuth
Unknown
Elevation
Unknown
Doppler factor
Unknown
Orbital elements
Apogee altitude
39,557.144 km
Perigee altitude
8,174.444 km
Semi-major axis
30,243.931 km
Eccentricity
0.51883
Inclination
14.2837°
RAAN
44.2564°
Arg. of periapsis
281.5654°
True anomaly
78.59798°
Mean anomaly
26.875°
Eccentric anomaly
49.46871°
Mean motion
0.41265 °/min
Orbital period
872.4 mins
BSTAR
0
Loading maneuver chart data...
Computing Atmospheric mass density...

Documentation

Showing up to 5 results
|